Overview Statistics Trail Chart Weather Telemetry Raw packets
 

This is the latest recevied weather packets stored in our database for station/object OK1VOF-13. If no packets are shown the sender has not sent any weather packets the latest 10 day(s).

<< 18 19 20 21 22 23 24 >>
Time Temp. Humidity Pressure Rain* Wind** Luminosity Snow
1788382249 18.89° C 55% 1021.8 hPa 0 mm - - -
1788381950 18.89° C 54% 1021.9 hPa 0 mm - - -
1788381651 18.89° C 54% 1021.8 hPa 0 mm - - -
1788381353 18.89° C 54% 1021.8 hPa 0 mm - - -
1788381054 18.89° C 54% 1021.8 hPa 0 mm - - -
1788380755 18.89° C 54% 1021.8 hPa 0 mm - - -
1788380158 19.44° C 54% 1021.8 hPa 0 mm - - -
1788379860 19.44° C 53% 1021.8 hPa 0 mm - - -
1788379555 19.44° C 53% 1021.7 hPa 0 mm - - -
1788378957 19.44° C 53% 1021.7 hPa 0 mm - - -
1788378659 19.44° C 53% 1021.8 hPa 0 mm - - -
1788378360 20° C 53% 1021.7 hPa 0 mm - - -
1788378061 20° C 53% 1021.8 hPa 0 mm - - -
1788377762 20° C 53% 1021.8 hPa 0 mm - - -
1788376873 20.56° C 52% 1021.8 hPa 0 mm - - -
1788375976 20.56° C 52% 1021.8 hPa 0 mm - - -
1788375379 21.11° C 52% 1021.9 hPa 0 mm - - -
1788374184 21.67° C 51% 1021.7 hPa 0 mm - - -
1788373580 21.67° C 51% 1021.7 hPa 0 mm - - -
1788373287 22.22° C 51% 1021.8 hPa 0 mm - - -
1788372086 22.78° C 50% 1021.7 hPa 0 mm - - -
1788370592 23.33° C 50% 1021.6 hPa 0 mm - - -
1788370293 23.89° C 50% 1021.6 hPa 0 mm - - -
1788369396 24.44° C 49% 1021.6 hPa 0 mm - - -
1788368208 25.56° C 49% 1021.5 hPa 0 mm - - -

* Rain latest hour (hover to see other rain measurements)
** Current wind speed in m/s (hover to see current wind gust speed)